QPF
0.01 0.03 0.05 0.07 0.08 0.08 0.02 0.01 0.00 0.00 0.00 0.00 0.00 0.00 0.00 0.01 0.01 0.04 0.03 0.01 0.01 0.00 0.00 0.00 0.00 0.00 0.00 0.00 0.00 0.01 0.00 0.00 0.00 0.01 0.00 0.01 0.01 0.00 0.00 0.01 0.01 0.01 0.01 0.02 0.03 0.04 0.04 0.02 0.02
0.02 0.03 0.05 0.07 0.09 0.04 0.01 0.01 0.00 0.00 0.01 0.01 0.01 0.00 0.01 0.00 0.00 0.01 0.02 0.02 0.01 0.00 0.00 0.00 0.00 0.00 0.00 0.00 0.00 0.00 0.00 0.00 0.00 0.01 0.01 0.01 0.01 0.00 0.00 0.00 0.00 0.00 0.01 0.02 0.03 0.03 0.03 0.02 0.02
0.03 0.03 0.04 0.09 0.08 0.04 0.02 0.01 0.01 0.01 0.01 0.01 0.01 0.01 0.01 0.01 0.01 0.02 0.03 0.02 0.01 0.00 0.00 0.00 0.00 0.00 0.00 0.00 0.00 0.00 0.00 0.00 0.00 0.00 0.00 0.01 0.01 0.01 0.00 0.01 0.00 0.01 0.01 0.02 0.02 0.01 0.01 0.01 0.02
0.02 0.03 0.03 0.06 0.04 0.02 0.02 0.01 0.01 0.01 0.01 0.01 0.02 0.03 0.01 0.01 0.01 0.03 0.03 0.02 0.01 0.00 0.00 0.00 0.00 0.00 0.00 0.00 0.00 0.00 0.00 0.00 0.00 0.00 0.00 0.01 0.01 0.01 0.01 0.01 0.01 0.01 0.01 0.01 0.01 0.01 0.01 0.01 0.01
0.01 0.06 0.07 0.07 0.04 0.02 0.01 0.01 0.01 0.01 0.02 0.03 0.03 0.04 0.03 0.01 0.01 0.03 0.03 0.04 0.01 0.00 0.00 0.00 0.00 0.00 0.00 0.00 0.00 0.00 0.00 0.00 0.00 0.00 0.01 0.01 0.01 0.01 0.01 0.01 0.01 0.01 0.01 0.01 0.01 0.01 0.01 0.02 0.03
0.03 0.10 0.09 0.07 0.04 0.02 0.02 0.01 0.01 0.01 0.02 0.04 0.05 0.04 0.04 0.02 0.02 0.05 0.07 0.11 0.06 0.01 0.00 0.00 0.00 0.00 0.00 0.00 0.00 0.01 0.00 0.00 0.00 0.00 0.00 0.00 0.01 0.01 0.00 0.00 0.01 0.01 0.01 0.01 0.01 0.01 0.01 0.01 0.02
0.01 0.05 0.06 0.04 0.02 0.01 0.01 0.01 0.01 0.01 0.03 0.03 0.03 0.03 0.04 0.04 0.04 0.04 0.07 0.10 0.06 0.02 0.00 0.00 0.00 0.00 0.00 0.00 0.00 0.00 0.00 0.00 0.01 0.01 0.01 0.00 0.00 0.00 0.00 0.00 0.00 0.01 0.01 0.01 0.01 0.01 0.01 0.01 0.02
0.01 0.02 0.03 0.02 0.02 0.01 0.00 0.00 0.00 0.01 0.01 0.02 0.04 0.04 0.03 0.04 0.04 0.04 0.08 0.11 0.07 0.03 0.02 0.01 0.00 0.00 0.00 0.01 0.01 0.01 0.01 0.00 0.01 0.01 0.01 0.01 0.01 0.01 0.00 0.00 0.00 0.01 0.01 0.01 0.01 0.02 0.02 0.02 0.02
0.01 0.02 0.02 0.02 0.01 0.00 0.00 0.00 0.00 0.01 0.01 0.02 0.06 0.05 0.04 0.04 0.03 0.05 0.10 0.24 0.16 0.07 0.04 0.06 0.06 0.01 0.01 0.01 0.01 0.00 0.01 0.01 0.01 0.01 0.01 0.01 0.01 0.00 0.00 0.00 0.00 0.01 0.01 0.01 0.01 0.02 0.01 0.02 0.02
0.00 0.01 0.01 0.01 0.00 0.00 0.00 0.00 0.00 0.01 0.01 0.02 0.02 0.03 0.04 0.04 0.04 0.04 0.12 0.39 0.17 0.09 0.07 0.07 0.05 0.02 0.01 0.01 0.01 0.01 0.00 0.00 0.01 0.00 0.01 0.02 0.01 0.01 0.01 0.00 0.01 0.01 0.03 0.03 0.02 0.02 0.02 0.02 0.02
0.00 0.00 0.00 0.00 0.00 0.00 0.00 0.00 0.00 0.00 0.01 0.01 0.01 0.02 0.02 0.04 0.04 0.04 0.11 0.16 0.11 0.10 0.08 0.10 0.05 0.02 0.02 0.01 0.01 0.01 0.01 0.01 0.01 0.01 0.01 0.02 0.01 0.01 0.01 0.00 0.01 0.01 0.02 0.02 0.02 0.03 0.03 0.03 0.03
0.00 0.00 0.00 0.00 0.00 0.00 0.00 0.00 0.00 0.00 0.01 0.01 0.01 0.01 0.01 0.02 0.03 0.04 0.05 0.07 0.12 0.13 0.10 0.13 0.10 0.05 0.05 0.05 0.03 0.02 0.02 0.01 0.02 0.01 0.01 0.01 0.02 0.01 0.01 0.01 0.01 0.01 0.02 0.02 0.03 0.05 0.09 0.08 0.08
0.00 0.00 0.00 0.00 0.00 0.00 0.00 0.00 0.00 0.01 0.01 0.01 0.01 0.01 0.01 0.01 0.01 0.02 0.03 0.08 0.13 0.11 0.09 0.16 0.17 0.11 0.11 0.14 0.06 0.04 0.03 0.02 0.03 0.02 0.02 0.01 0.01 0.03 0.02 0.02 0.02 0.04 0.03 0.02 0.04 0.06 0.06 0.07 0.06
0.00 0.00 0.00 0.00 0.00 0.00 0.00 0.00 0.00 0.03 0.02 0.02 0.01 0.01 0.01 0.01 0.01 0.02 0.03 0.07 0.13 0.09 0.08 0.16 0.20 0.10 0.10 0.09 0.07 0.06 0.08 0.09 0.04 0.03 0.02 0.02 0.02 0.01 0.01 0.02 0.03 0.05 0.04 0.03 0.04 0.04 0.05 0.06 0.04
0.00 0.00 0.00 0.00 0.01 0.00 0.00 0.00 0.00 0.01 0.02 0.03 0.02 0.02 0.02 0.02 0.02 0.02 0.03 0.07 0.13 0.15 0.10 0.11 0.14 0.08 0.07 0.08 0.08 0.08 0.09 0.07 0.05 0.04 0.03 0.03 0.02 0.01 0.01 0.01 0.02 0.03 0.03 0.03 0.03 0.03 0.04 0.05 0.06
0.00 0.00 0.00 0.00 0.00 0.00 0.00 0.00 0.00 0.01 0.01 0.02 0.02 0.02 0.02 0.03 0.03 0.03 0.04 0.06 0.10 0.14 0.11 0.08 0.08 0.07 0.07 0.09 0.12 0.12 0.12 0.10 0.09 0.08 0.04 0.03 0.02 0.01 0.01 0.01 0.03 0.03 0.02 0.03 0.03 0.03 0.03 0.06 0.06
0.00 0.00 0.00 0.00 0.00 0.00 0.00 0.00 0.00 0.02 0.05 0.03 0.02 0.02 0.02 0.04 0.04 0.05 0.05 0.05 0.06 0.05 0.06 0.08 0.07 0.07 0.09 0.11 0.13 0.14 0.15 0.19 0.18 0.10 0.05 0.04 0.03 0.02 0.01 0.01 0.03 0.02 0.02 0.02 0.02 0.03 0.03 0.04 0.03
0.00 0.00 0.00 0.00 0.00 0.00 0.00 0.00 0.01 0.01 0.03 0.02 0.02 0.02 0.02 0.03 0.04 0.05 0.04 0.05 0.06 0.04 0.05 0.07 0.09 0.10 0.11 0.15 0.14 0.18 0.19 0.19 0.21 0.15 0.07 0.04 0.05 0.03 0.02 0.02 0.01 0.02 0.02 0.02 0.04 0.05 0.04 0.02 0.03
0.00 0.00 0.00 0.00 0.00 0.00 0.00 0.00 0.01 0.01 0.01 0.03 0.04 0.02 0.03 0.06 0.05 0.04 0.03 0.04 0.04 0.03 0.03 0.06 0.09 0.10 0.14 0.15 0.12 0.14 0.18 0.19 0.22 0.22 0.10 0.05 0.05 0.05 0.02 0.02 0.02 0.02 0.02 0.01 0.02 0.02 0.03 0.02 0.03
0.00 0.00 0.00 0.00 0.00 0.00 0.00 0.01 0.02 0.02 0.02 0.03 0.04 0.04 0.07 0.11 0.08 0.06 0.03 0.03 0.03 0.03 0.04 0.08 0.12 0.14 0.15 0.14 0.11 0.10 0.13 0.18 0.20 0.19 0.12 0.06 0.05 0.05 0.02 0.02 0.02 0.02 0.02 0.01 0.01 0.01 0.03 0.03 0.03
0.00 0.00 0.00 0.00 0.00 0.00 0.00 0.00 0.01 0.01 0.03 0.03 0.02 0.03 0.06 0.08 0.13 0.08 0.04 0.03 0.04 0.04 0.05 0.08 0.14 0.17 0.18 0.16 0.14 0.13 0.13 0.16 0.20 0.21 0.13 0.07 0.06 0.05 0.03 0.01 0.02 0.02 0.02 0.02 0.01 0.01 0.01 0.02 0.03
0.00 0.00 0.00 0.00 0.00 0.00 0.00 0.00 0.01 0.01 0.03 0.06 0.03 0.04 0.05 0.04 0.07 0.11 0.06 0.02 0.04 0.05 0.05 0.06 0.12 0.18 0.22 0.20 0.16 0.12 0.09 0.09 0.11 0.11 0.11 0.08 0.06 0.05 0.04 0.02 0.02 0.02 0.02 0.02 0.01 0.01 0.01 0.01 0.02
0.00 0.00 0.00 0.00 0.00 0.00 0.00 0.00 0.01 0.01 0.05 0.07 0.03 0.04 0.05 0.04 0.04 0.04 0.03 0.03 0.03 0.04 0.03 0.05 0.10 0.13 0.17 0.17 0.18 0.19 0.12 0.11 0.11 0.10 0.11 0.09 0.07 0.06 0.04 0.03 0.03 0.03 0.03 0.03 0.02 0.02 0.02 0.01 0.02
0.00 0.00 0.00 0.00 0.00 0.00 0.00 0.00 0.01 0.01 0.02 0.04 0.03 0.04 0.05 0.04 0.04 0.05 0.06 0.04 0.03 0.02 0.03 0.03 0.07 0.09 0.11 0.13 0.16 0.18 0.15 0.13 0.13 0.10 0.08 0.07 0.06 0.05 0.04 0.04 0.05 0.05 0.04 0.03 0.02 0.02 0.02 0.02 0.03
0.00 0.00 0.00 0.00 0.00 0.00 0.00 0.00 0.01 0.03 0.05 0.03 0.02 0.02 0.03 0.03 0.05 0.11 0.14 0.07 0.04 0.02 0.03 0.03 0.05 0.06 0.09 0.10 0.15 0.15 0.14 0.13 0.11 0.09 0.08 0.07 0.05 0.04 0.04 0.04 0.04 0.05 0.04 0.03 0.04 0.03 0.03 0.03 0.04
0.00 0.00 0.00 0.00 0.00 0.00 0.00 0.00 0.01 0.06 0.04 0.03 0.03 0.04 0.04 0.04 0.04 0.08 0.15 0.11 0.04 0.03 0.04 0.04 0.05 0.04 0.05 0.08 0.13 0.13 0.12 0.11 0.10 0.10 0.09 0.08 0.05 0.05 0.04 0.05 0.05 0.05 0.05 0.04 0.05 0.05 0.03 0.03 0.03
0.00 0.00 0.00 0.00 0.00 0.00 0.01 0.01 0.01 0.02 0.03 0.05 0.03 0.03 0.04 0.04 0.07 0.08 0.10 0.07 0.03 0.04 0.04 0.03 0.04 0.04 0.04 0.06 0.09 0.10 0.10 0.08 0.08 0.08 0.07 0.06 0.05 0.05 0.06 0.07 0.07 0.09 0.07 0.04 0.04 0.05 0.03 0.02 0.03
0.00 0.00 0.00 0.00 0.00 0.00 0.01 0.01 0.02 0.02 0.03 0.02 0.04 0.04 0.04 0.06 0.11 0.11 0.06 0.06 0.06 0.04 0.04 0.05 0.04 0.04 0.04 0.06 0.08 0.09 0.09 0.08 0.07 0.06 0.05 0.05 0.06 0.07 0.08 0.09 0.09 0.11 0.10 0.08 0.07 0.06 0.05 0.06 0.06
0.00 0.00 0.00 0.00 0.00 0.00 0.01 0.02 0.02 0.02 0.02 0.03 0.04 0.04 0.04 0.05 0.10 0.08 0.05 0.04 0.04 0.04 0.03 0.03 0.03 0.03 0.04 0.07 0.08 0.08 0.09 0.08 0.07 0.06 0.06 0.07 0.07 0.08 0.10 0.11 0.12 0.13 0.13 0.11 0.09 0.06 0.05 0.05 0.06
0.00 0.00 0.00 0.00 0.00 0.00 0.00 0.00 0.01 0.02 0.03 0.02 0.05 0.06 0.05 0.05 0.04 0.04 0.04 0.05 0.03 0.02 0.01 0.01 0.02 0.03 0.05 0.08 0.08 0.08 0.10 0.07 0.06 0.06 0.07 0.07 0.08 0.08 0.09 0.11 0.14 0.14 0.13 0.12 0.10 0.06 0.05 0.05 0.05
MSLP
1008.51 1009.57 1010.85 1012.13 1013.17 1013.81 1013.96 1013.67 1013.06 1012.34 1011.71 1011.32 1011.26 1011.52 1011.99 1012.53 1013.00 1013.30 1013.37 1013.27 1013.06 1012.88 1012.80 1012.91 1013.20 1013.63 1014.11 1014.55 1014.89 1015.09 1015.17 1015.16 1015.13 1015.14 1015.21 1015.35 1015.54 1015.74 1015.91 1016.01 1016.06 1016.07 1016.08 1016.11 1016.20 1016.35 1016.56 1016.81 1017.05
1009.23 1010.51 1011.91 1013.18 1014.08 1014.49 1014.36 1013.76 1012.88 1011.92 1011.11 1010.62 1010.50 1010.74 1011.22 1011.80 1012.33 1012.70 1012.87 1012.87 1012.78 1012.71 1012.75 1012.94 1013.29 1013.74 1014.23 1014.67 1015.00 1015.21 1015.30 1015.33 1015.34 1015.39 1015.49 1015.66 1015.84 1016.02 1016.15 1016.22 1016.24 1016.23 1016.23 1016.27 1016.38 1016.55 1016.79 1017.05 1017.30
1010.22 1011.65 1013.08 1014.25 1014.95 1015.09 1014.66 1013.78 1012.66 1011.52 1010.60 1010.05 1009.92 1010.16 1010.66 1011.27 1011.84 1012.26 1012.50 1012.58 1012.59 1012.61 1012.73 1012.99 1013.38 1013.85 1014.34 1014.77 1015.09 1015.30 1015.41 1015.47 1015.52 1015.60 1015.74 1015.91 1016.08 1016.24 1016.34 1016.39 1016.39 1016.38 1016.39 1016.45 1016.59 1016.79 1017.05 1017.32 1017.58
1011.33 1012.82 1014.18 1015.18 1015.63 1015.49 1014.79 1013.68 1012.39 1011.16 1010.21 1009.67 1009.57 1009.84 1010.38 1011.01 1011.59 1012.04 1012.31 1012.45 1012.53 1012.62 1012.80 1013.10 1013.51 1013.99 1014.45 1014.86 1015.16 1015.36 1015.48 1015.57 1015.65 1015.77 1015.92 1016.10 1016.27 1016.41 1016.50 1016.53 1016.53 1016.54 1016.58 1016.69 1016.86 1017.10 1017.37 1017.64 1017.89
1012.39 1013.83 1015.03 1015.79 1015.99 1015.58 1014.67 1013.42 1012.07 1010.85 1009.96 1009.49 1009.47 1009.80 1010.36 1011.00 1011.59 1012.03 1012.32 1012.49 1012.61 1012.76 1012.99 1013.32 1013.73 1014.18 1014.61 1014.97 1015.23 1015.41 1015.53 1015.63 1015.74 1015.88 1016.06 1016.25 1016.42 1016.56 1016.64 1016.68 1016.70 1016.74 1016.83 1016.98 1017.19 1017.46 1017.74 1018.01 1018.24
1013.21 1014.49 1015.46 1015.95 1015.89 1015.28 1014.24 1012.96 1011.66 1010.56 1009.82 1009.50 1009.59 1009.99 1010.58 1011.21 1011.77 1012.19 1012.48 1012.67 1012.83 1013.02 1013.28 1013.63 1014.03 1014.44 1014.81 1015.10 1015.31 1015.46 1015.56 1015.66 1015.79 1015.97 1016.17 1016.38 1016.57 1016.72 1016.81 1016.87 1016.92 1017.00 1017.12 1017.32 1017.56 1017.84 1018.13 1018.38 1018.59
1013.67 1014.71 1015.39 1015.60 1015.30 1014.55 1013.48 1012.28 1011.14 1010.26 1009.74 1009.62 1009.84 1010.32 1010.93 1011.54 1012.05 1012.44 1012.72 1012.92 1013.11 1013.35 1013.64 1013.99 1014.38 1014.74 1015.04 1015.26 1015.41 1015.51 1015.59 1015.70 1015.85 1016.06 1016.30 1016.54 1016.75 1016.92 1017.03 1017.11 1017.18 1017.29 1017.45 1017.66 1017.93 1018.21 1018.49 1018.72 1018.91
1013.72 1014.46 1014.83 1014.78 1014.30 1013.48 1012.46 1011.43 1010.54 1009.94 1009.68 1009.78 1010.15 1010.69 1011.30 1011.86 1012.32 1012.67 1012.92 1013.14 1013.37 1013.65 1013.99 1014.35 1014.72 1015.03 1015.27 1015.42 1015.51 1015.56 1015.63 1015.74 1015.93 1016.18 1016.46 1016.75 1016.99 1017.18 1017.31 1017.40 1017.48 1017.60 1017.76 1017.98 1018.24 1018.52 1018.78 1018.99 1019.16
1013.43 1013.85 1013.93 1013.63 1013.02 1012.19 1011.30 1010.48 1009.88 1009.58 1009.61 1009.91 1010.40 1010.99 1011.57 1012.08 1012.47 1012.77 1013.01 1013.25 1013.52 1013.85 1014.23 1014.63 1014.99 1015.27 1015.46 1015.55 1015.58 1015.61 1015.67 1015.80 1016.03 1016.33 1016.66 1016.99 1017.27 1017.48 1017.63 1017.72 1017.79 1017.90 1018.04 1018.24 1018.48 1018.74 1018.97 1019.17 1019.32
1012.92 1013.05 1012.86 1012.37 1011.67 1010.88 1010.14 1009.56 1009.24 1009.23 1009.49 1009.96 1010.54 1011.14 1011.68 1012.11 1012.44 1012.69 1012.91 1013.17 1013.50 1013.89 1014.32 1014.75 1015.11 1015.38 1015.54 1015.60 1015.61 1015.62 1015.69 1015.86 1016.13 1016.49 1016.88 1017.25 1017.57 1017.80 1017.95 1018.03 1018.09 1018.16 1018.27 1018.43 1018.64 1018.86 1019.07 1019.26 1019.40
1012.39 1012.27 1011.85 1011.21 1010.46 1009.73 1009.13 1008.76 1008.68 1008.90 1009.34 1009.92 1010.54 1011.12 1011.59 1011.94 1012.20 1012.40 1012.62 1012.91 1013.28 1013.72 1014.21 1014.67 1015.06 1015.33 1015.48 1015.54 1015.55 1015.58 1015.68 1015.89 1016.21 1016.62 1017.06 1017.48 1017.83 1018.08 1018.23 1018.31 1018.34 1018.38 1018.44 1018.56 1018.72 1018.91 1019.11 1019.29 1019.44
1012.01 1011.68 1011.10 1010.36 1009.58 1008.89 1008.41 1008.20 1008.28 1008.63 1009.17 1009.79 1010.40 1010.92 1011.32 1011.59 1011.78 1011.95 1012.17 1012.47 1012.88 1013.37 1013.90 1014.40 1014.82 1015.11 1015.28 1015.36 1015.40 1015.46 1015.61 1015.86 1016.24 1016.69 1017.17 1017.63 1018.01 1018.28 1018.43 1018.50 1018.52 1018.53 1018.57 1018.65 1018.78 1018.94 1019.12 1019.31 1019.48
1011.88 1011.42 1010.72 1009.91 1009.11 1008.46 1008.04 1007.91 1008.07 1008.47 1009.02 1009.61 1010.17 1010.61 1010.93 1011.14 1011.28 1011.43 1011.64 1011.96 1012.39 1012.90 1013.45 1013.97 1014.41 1014.74 1014.94 1015.07 1015.16 1015.28 1015.47 1015.78 1016.19 1016.67 1017.18 1017.65 1018.05 1018.34 1018.52 1018.60 1018.63 1018.63 1018.66 1018.73 1018.84 1018.99 1019.17 1019.36 1019.55
1012.05 1011.51 1010.75 1009.90 1009.09 1008.44 1008.04 1007.92 1008.07 1008.43 1008.91 1009.43 1009.89 1010.26 1010.51 1010.67 1010.79 1010.93 1011.14 1011.46 1011.88 1012.39 1012.94 1013.46 1013.92 1014.27 1014.53 1014.72 1014.87 1015.06 1015.30 1015.64 1016.07 1016.56 1017.06 1017.54 1017.94 1018.25 1018.46 1018.58 1018.64 1018.69 1018.74 1018.82 1018.94 1019.09 1019.28 1019.47 1019.68
1012.45 1011.87 1011.09 1010.23 1009.43 1008.78 1008.35 1008.18 1008.25 1008.50 1008.87 1009.27 1009.64 1009.94 1010.15 1010.29 1010.41 1010.55 1010.76 1011.07 1011.47 1011.94 1012.45 1012.96 1013.42 1013.80 1014.11 1014.37 1014.60 1014.85 1015.15 1015.50 1015.92 1016.38 1016.86 1017.31 1017.71 1018.03 1018.28 1018.46 1018.59 1018.69 1018.80 1018.92 1019.07 1019.25 1019.44 1019.65 1019.87
1012.94 1012.37 1011.61 1010.78 1009.99 1009.34 1008.87 1008.62 1008.56 1008.68 1008.91 1009.18 1009.45 1009.69 1009.88 1010.04 1010.19 1010.36 1010.57 1010.86 1011.21 1011.63 1012.08 1012.54 1012.99 1013.39 1013.76 1014.10 1014.41 1014.72 1015.05 1015.41 1015.79 1016.20 1016.62 1017.02 1017.39 1017.72 1018.00 1018.25 1018.46 1018.65 1018.84 1019.03 1019.22 1019.43 1019.65 1019.87 1020.09
1013.38 1012.84 1012.15 1011.39 1010.66 1010.02 1009.52 1009.17 1008.99 1008.94 1009.01 1009.15 1009.34 1009.54 1009.75 1009.95 1010.15 1010.36 1010.59 1010.84 1011.14 1011.48 1011.85 1012.26 1012.68 1013.11 1013.53 1013.93 1014.33 1014.70 1015.06 1015.40 1015.74 1016.07 1016.39 1016.72 1017.04 1017.36 1017.67 1017.99 1018.29 1018.57 1018.85 1019.11 1019.36 1019.60 1019.83 1020.07 1020.29
1013.63 1013.16 1012.59 1011.96 1011.33 1010.75 1010.23 1009.80 1009.48 1009.27 1009.18 1009.19 1009.29 1009.48 1009.71 1009.98 1010.25 1010.52 1010.77 1011.00 1011.24 1011.50 1011.78 1012.12 1012.51 1012.95 1013.42 1013.90 1014.37 1014.80 1015.19 1015.51 1015.78 1016.02 1016.24 1016.47 1016.72 1017.01 1017.34 1017.70 1018.08 1018.45 1018.81 1019.14 1019.44 1019.71 1019.96 1020.20 1020.44
1013.63 1013.29 1012.89 1012.44 1011.97 1011.47 1010.97 1010.48 1010.03 1009.66 1009.40 1009.27 1009.30 1009.46 1009.73 1010.07 1010.42 1010.76 1011.04 1011.27 1011.46 1011.63 1011.84 1012.10 1012.46 1012.90 1013.41 1013.96 1014.51 1015.00 1015.40 1015.71 1015.92 1016.06 1016.17 1016.30 1016.47 1016.71 1017.04 1017.43 1017.86 1018.30 1018.72 1019.10 1019.43 1019.72 1019.99 1020.23 1020.48
1013.41 1013.24 1013.06 1012.85 1012.58 1012.22 1011.76 1011.22 1010.65 1010.11 1009.67 1009.39 1009.32 1009.44 1009.74 1010.14 1010.58 1010.99 1011.33 1011.56 1011.71 1011.83 1011.95 1012.15 1012.47 1012.91 1013.46 1014.07 1014.68 1015.23 1015.66 1015.95 1016.11 1016.18 1016.19 1016.22 1016.31 1016.50 1016.79 1017.19 1017.64 1018.11 1018.57 1018.98 1019.33 1019.63 1019.89 1020.15 1020.40
1013.03 1013.09 1013.19 1013.25 1013.22 1013.02 1012.61 1012.03 1011.33 1010.61 1009.97 1009.52 1009.32 1009.39 1009.68 1010.14 1010.66 1011.15 1011.54 1011.80 1011.94 1012.01 1012.08 1012.23 1012.50 1012.93 1013.50 1014.15 1014.81 1015.41 1015.87 1016.17 1016.30 1016.31 1016.25 1016.20 1016.22 1016.35 1016.61 1016.99 1017.44 1017.92 1018.38 1018.79 1019.14 1019.43 1019.69 1019.94 1020.21
1012.64 1012.95 1013.36 1013.73 1013.94 1013.90 1013.55 1012.92 1012.08 1011.16 1010.31 1009.66 1009.30 1009.27 1009.54 1010.02 1010.61 1011.18 1011.64 1011.95 1012.10 1012.15 1012.18 1012.27 1012.51 1012.91 1013.48 1014.14 1014.84 1015.47 1015.97 1016.28 1016.41 1016.40 1016.31 1016.21 1016.18 1016.27 1016.49 1016.83 1017.26 1017.72 1018.17 1018.56 1018.89 1019.16 1019.41 1019.65 1019.92
1012.33 1012.93 1013.65 1014.31 1014.75 1014.86 1014.55 1013.86 1012.87 1011.74 1010.65 1009.79 1009.26 1009.11 1009.33 1009.82 1010.45 1011.10 1011.63 1012.00 1012.18 1012.23 1012.24 1012.29 1012.48 1012.84 1013.37 1014.03 1014.73 1015.38 1015.90 1016.24 1016.40 1016.39 1016.30 1016.19 1016.14 1016.20 1016.39 1016.71 1017.10 1017.53 1017.95 1018.31 1018.61 1018.86 1019.08 1019.32 1019.59
1012.19 1013.07 1014.07 1014.98 1015.62 1015.83 1015.55 1014.78 1013.63 1012.30 1010.99 1009.91 1009.20 1008.93 1009.08 1009.56 1010.24 1010.95 1011.55 1011.98 1012.21 1012.28 1012.28 1012.29 1012.42 1012.72 1013.20 1013.82 1014.49 1015.14 1015.67 1016.04 1016.23 1016.26 1016.20 1016.11 1016.07 1016.12 1016.30 1016.59 1016.95 1017.35 1017.73 1018.06 1018.33 1018.55 1018.76 1018.98 1019.24
1012.22 1013.33 1014.56 1015.67 1016.44 1016.73 1016.43 1015.58 1014.31 1012.80 1011.30 1010.04 1009.17 1008.78 1008.86 1009.33 1010.02 1010.79 1011.46 1011.96 1012.24 1012.33 1012.32 1012.30 1012.38 1012.60 1013.00 1013.55 1014.17 1014.78 1015.31 1015.70 1015.92 1016.00 1015.99 1015.94 1015.93 1016.00 1016.17 1016.45 1016.79 1017.15 1017.50 1017.81 1018.06 1018.27 1018.46 1018.66 1018.91
1012.37 1013.65 1015.03 1016.25 1017.09 1017.40 1017.08 1016.17 1014.79 1013.17 1011.54 1010.16 1009.18 1008.71 1008.74 1009.18 1009.89 1010.68 1011.41 1011.96 1012.28 1012.41 1012.40 1012.35 1012.36 1012.51 1012.82 1013.27 1013.82 1014.38 1014.88 1015.27 1015.53 1015.65 1015.69 1015.69 1015.72 1015.81 1015.99 1016.26 1016.59 1016.93 1017.26 1017.55 1017.79 1018.00 1018.19 1018.38 1018.62
1012.54 1013.91 1015.34 1016.59 1017.43 1017.72 1017.38 1016.43 1015.02 1013.36 1011.70 1010.27 1009.25 1008.74 1008.74 1009.16 1009.86 1010.67 1011.42 1012.00 1012.36 1012.51 1012.50 1012.43 1012.40 1012.47 1012.69 1013.05 1013.50 1013.99 1014.45 1014.83 1015.09 1015.24 1015.33 1015.38 1015.44 1015.56 1015.75 1016.01 1016.33 1016.66 1016.99 1017.28 1017.53 1017.74 1017.94 1018.14 1018.37
1012.64 1014.00 1015.38 1016.57 1017.36 1017.61 1017.25 1016.31 1014.94 1013.34 1011.73 1010.36 1009.38 1008.88 1008.87 1009.27 1009.95 1010.74 1011.48 1012.07 1012.44 1012.60 1012.60 1012.53 1012.46 1012.48 1012.62 1012.89 1013.26 1013.67 1014.07 1014.41 1014.67 1014.84 1014.94 1015.02 1015.11 1015.25 1015.44 1015.70 1016.01 1016.34 1016.67 1016.97 1017.24 1017.49 1017.71 1017.93 1018.16
1012.60 1013.85 1015.10 1016.15 1016.83 1017.02 1016.66 1015.79 1014.54 1013.08 1011.64 1010.41 1009.54 1009.11 1009.11 1009.50 1010.13 1010.86 1011.56 1012.11 1012.47 1012.64 1012.65 1012.58 1012.51 1012.51 1012.60 1012.81 1013.10 1013.44 1013.78 1014.07 1014.30 1014.46 1014.57 1014.66 1014.76 1014.89 1015.08 1015.34 1015.63 1015.96 1016.30 1016.63 1016.94 1017.23 1017.50 1017.76 1018.01
1012.39 1013.45 1014.50 1015.36 1015.89 1016.01 1015.67 1014.92 1013.85 1012.63 1011.43 1010.41 1009.70 1009.37 1009.41 1009.76 1010.32 1010.96 1011.57 1012.07 1012.39 1012.55 1012.58 1012.54 1012.50 1012.50 1012.59 1012.76 1013.01 1013.29 1013.57 1013.82 1014.01 1014.15 1014.24 1014.32 1014.41 1014.53 1014.71 1014.95 1015.24 1015.57 1015.92 1016.27 1016.63 1016.97 1017.30 1017.62 1017.92
Thickness
5839 5839 5835 5823 5797 5775 5775 5793 5806 5805 5807 5817 5820 5813 5801 5792 5780 5769 5792 5798 5795 5789 5786 5783 5781 5779 5778 5778 5777 5777 5776 5775 5775 5774 5774 5773 5772 5771 5770 5769 5768 5766 5765 5763 5762 5760 5759 5758 5756
5842 5841 5829 5809 5778 5758 5775 5799 5803 5808 5814 5821 5820 5814 5803 5796 5800 5793 5793 5795 5795 5790 5786 5783 5781 5779 5778 5777 5776 5775 5774 5774 5773 5773 5773 5772 5771 5770 5769 5768 5767 5765 5764 5762 5761 5759 5757 5756 5755
5845 5841 5816 5793 5772 5764 5779 5802 5810 5818 5825 5822 5814 5814 5805 5797 5800 5797 5798 5797 5793 5788 5785 5782 5780 5778 5777 5775 5775 5774 5773 5773 5772 5772 5771 5771 5770 5769 5768 5766 5766 5764 5763 5761 5759 5757 5756 5754 5753
5840 5826 5809 5783 5774 5791 5801 5811 5821 5819 5820 5822 5815 5804 5807 5813 5810 5805 5801 5796 5791 5786 5783 5781 5779 5777 5776 5774 5773 5773 5772 5771 5771 5770 5770 5769 5768 5768 5766 5765 5764 5763 5761 5759 5758 5756 5754 5753 5751
5835 5810 5787 5774 5782 5805 5820 5826 5828 5819 5815 5817 5814 5798 5796 5811 5814 5806 5800 5795 5789 5784 5782 5780 5777 5775 5774 5773 5772 5771 5770 5770 5769 5769 5768 5768 5767 5766 5765 5764 5763 5761 5759 5758 5756 5754 5753 5751 5750
5818 5801 5775 5768 5787 5811 5824 5833 5832 5820 5816 5816 5811 5797 5793 5807 5806 5800 5797 5792 5789 5785 5782 5779 5777 5774 5772 5771 5770 5769 5769 5768 5768 5767 5766 5766 5765 5764 5763 5762 5761 5759 5757 5756 5754 5753 5751 5750 5749
5811 5792 5778 5782 5791 5808 5825 5836 5829 5820 5815 5817 5817 5795 5793 5800 5804 5801 5796 5791 5787 5783 5780 5778 5775 5773 5771 5769 5768 5768 5767 5766 5766 5765 5764 5764 5763 5762 5761 5760 5759 5757 5755 5754 5753 5751 5750 5749 5747
5824 5798 5785 5787 5795 5808 5832 5838 5838 5830 5821 5830 5824 5799 5791 5800 5805 5800 5792 5787 5784 5780 5778 5776 5773 5771 5769 5767 5766 5766 5765 5764 5764 5763 5763 5762 5761 5760 5759 5758 5756 5755 5754 5753 5752 5750 5749 5747 5746
5831 5791 5779 5793 5805 5817 5836 5833 5836 5840 5831 5827 5826 5818 5814 5811 5805 5795 5786 5780 5778 5776 5775 5773 5771 5769 5767 5766 5764 5764 5763 5762 5762 5762 5761 5760 5759 5758 5757 5756 5754 5753 5752 5751 5750 5749 5747 5746 5745
5817 5786 5798 5821 5830 5832 5838 5837 5835 5827 5818 5815 5816 5817 5816 5809 5801 5792 5785 5778 5775 5772 5772 5771 5769 5767 5764 5764 5762 5761 5760 5760 5760 5760 5760 5759 5757 5756 5755 5754 5753 5752 5751 5750 5749 5748 5747 5745 5743
5822 5809 5823 5835 5845 5846 5841 5839 5841 5824 5811 5815 5813 5811 5810 5805 5798 5792 5787 5783 5780 5775 5771 5769 5767 5765 5763 5762 5759 5758 5758 5758 5758 5758 5758 5757 5756 5755 5753 5752 5751 5750 5749 5748 5747 5747 5746 5744 5742
5826 5830 5837 5841 5850 5848 5843 5840 5835 5831 5828 5834 5829 5822 5812 5804 5797 5794 5789 5785 5781 5776 5773 5769 5767 5764 5762 5760 5758 5756 5756 5756 5756 5757 5756 5756 5754 5753 5752 5751 5750 5749 5748 5747 5746 5746 5745 5743 5742
5828 5832 5843 5848 5848 5848 5846 5839 5835 5833 5840 5838 5830 5821 5812 5805 5799 5797 5794 5789 5783 5778 5774 5770 5766 5763 5761 5758 5757 5756 5755 5755 5756 5756 5756 5755 5754 5753 5752 5750 5749 5748 5747 5746 5745 5744 5743 5742 5741
5832 5835 5840 5846 5847 5847 5840 5836 5833 5830 5838 5831 5824 5816 5812 5806 5800 5795 5791 5786 5783 5779 5775 5771 5767 5763 5760 5758 5756 5756 5755 5755 5755 5756 5756 5755 5754 5753 5751 5750 5749 5748 5747 5746 5745 5744 5743 5742 5741
5836 5826 5830 5841 5845 5844 5839 5821 5827 5835 5835 5825 5820 5816 5811 5806 5801 5796 5793 5790 5786 5782 5777 5772 5769 5764 5760 5757 5756 5755 5755 5755 5755 5755 5755 5755 5754 5753 5752 5750 5749 5748 5748 5746 5745 5743 5742 5741 5740
5824 5813 5804 5829 5841 5843 5827 5802 5825 5835 5831 5820 5817 5814 5808 5804 5801 5799 5796 5792 5788 5783 5778 5774 5770 5764 5760 5757 5755 5755 5754 5754 5754 5755 5754 5754 5754 5753 5752 5751 5749 5749 5748 5746 5744 5743 5741 5740 5739
5799 5789 5796 5816 5841 5840 5824 5808 5826 5832 5829 5818 5815 5811 5806 5801 5798 5798 5796 5793 5788 5784 5778 5772 5769 5764 5760 5757 5756 5754 5753 5752 5752 5753 5753 5753 5753 5752 5752 5751 5750 5749 5748 5746 5745 5743 5741 5738 5738
5782 5788 5796 5805 5831 5832 5819 5813 5824 5829 5828 5819 5815 5810 5804 5800 5798 5798 5796 5792 5788 5783 5778 5773 5768 5763 5760 5757 5754 5751 5750 5751 5751 5752 5753 5753 5752 5752 5751 5750 5749 5749 5747 5745 5744 5742 5741 5740 5738
5798 5794 5793 5809 5832 5825 5814 5811 5818 5824 5822 5815 5809 5807 5804 5801 5801 5799 5795 5791 5786 5781 5776 5772 5766 5762 5759 5755 5751 5748 5747 5748 5749 5750 5751 5752 5751 5752 5751 5750 5749 5748 5746 5745 5744 5742 5740 5738 5738
5801 5793 5795 5811 5829 5823 5810 5808 5817 5822 5819 5817 5812 5807 5804 5800 5797 5795 5792 5788 5784 5779 5775 5771 5766 5763 5760 5757 5754 5751 5748 5747 5748 5748 5750 5750 5751 5751 5751 5749 5748 5748 5746 5744 5743 5742 5738 5737 5737
5800 5796 5798 5803 5815 5815 5806 5791 5800 5813 5817 5816 5816 5812 5809 5804 5797 5794 5790 5786 5782 5778 5775 5772 5767 5763 5760 5757 5753 5750 5747 5745 5744 5745 5747 5749 5749 5750 5750 5749 5748 5747 5746 5743 5743 5741 5738 5734 5735
5789 5811 5811 5808 5792 5778 5790 5759 5783 5796 5802 5806 5807 5807 5807 5805 5798 5792 5788 5784 5781 5779 5777 5773 5768 5763 5760 5756 5752 5748 5744 5742 5743 5745 5746 5747 5748 5748 5748 5748 5747 5746 5745 5743 5742 5741 5739 5736 5731
5805 5819 5814 5806 5790 5774 5778 5762 5768 5789 5789 5796 5804 5808 5807 5804 5798 5792 5789 5786 5783 5780 5776 5772 5767 5763 5760 5757 5754 5749 5746 5745 5745 5745 5744 5745 5746 5747 5747 5747 5747 5745 5744 5743 5742 5741 5739 5737 5733
5821 5811 5797 5782 5767 5751 5767 5761 5760 5778 5790 5798 5805 5808 5805 5802 5797 5792 5789 5786 5782 5780 5775 5771 5767 5763 5760 5757 5753 5750 5746 5745 5743 5743 5742 5742 5743 5744 5746 5746 5745 5744 5743 5742 5741 5740 5739 5737 5735
5808 5772 5744 5742 5732 5739 5764 5762 5764 5795 5806 5807 5807 5806 5804 5801 5796 5791 5786 5783 5779 5776 5773 5769 5766 5762 5759 5756 5753 5751 5748 5746 5745 5743 5742 5741 5741 5742 5744 5745 5744 5743 5742 5741 5740 5739 5737 5736 5734
5795 5772 5739 5728 5725 5736 5758 5756 5776 5805 5813 5813 5810 5805 5800 5796 5793 5790 5787 5783 5780 5776 5772 5769 5765 5762 5759 5756 5753 5751 5749 5747 5746 5745 5744 5743 5743 5744 5744 5744 5743 5742 5741 5740 5739 5737 5736 5735 5733
5790 5776 5771 5746 5740 5732 5742 5762 5783 5804 5804 5803 5801 5798 5793 5791 5789 5786 5785 5782 5779 5775 5772 5769 5765 5762 5759 5756 5753 5751 5749 5748 5746 5746 5745 5744 5744 5744 5744 5743 5742 5741 5740 5739 5737 5735 5733 5732 5731
5805 5791 5759 5742 5726 5719 5737 5750 5757 5780 5788 5793 5793 5789 5789 5789 5786 5784 5782 5781 5778 5775 5772 5769 5766 5762 5760 5757 5754 5752 5749 5748 5747 5745 5744 5744 5744 5743 5742 5741 5740 5739 5738 5736 5734 5732 5731 5729 5727
5793 5786 5766 5743 5736 5721 5720 5740 5784 5786 5790 5790 5791 5792 5791 5788 5785 5783 5779 5779 5777 5773 5769 5766 5763 5760 5757 5755 5753 5751 5749 5748 5746 5745 5744 5743 5743 5742 5741 5739 5738 5736 5734 5733 5730 5728 5727 5724 5722
5798 5788 5767 5745 5740 5732 5725 5743 5797 5796 5797 5795 5793 5793 5792 5788 5786 5782 5778 5775 5772 5769 5766 5763 5761 5758 5756 5754 5752 5750 5748 5746 5744 5743 5742 5742 5741 5741 5739 5737 5735 5733 5731 5729 5727 5724 5722 5720 5717